map of YMS home
YMS - Airport
Location
City:  Yurimaguas, Loreto, Perú
Name:Moisés Benzaquén Rengifo Airport
ICAO:SPMS
IATA:YMS

Details
Type:Airport (Aerodrome, Airfield)
Use:Public/Civil
Latitude:5°53'37"S (-5.893610)
Longitude:76°07'05"W (-76.118055)
Elevation:587 ft (179 m)
Variation:3.95°W (WMM2015 magnetic declination)
-0.17° annual change
Runways:1
Longest:5906 × 98 ft (1800 × 30 m), paved

Time
Time Zone:UTC-5
Local Time:

Weather
METAR:SPMS 272300Z 00000KT 9999 FEW014 29/25 Q1012 RMK BIRD HAZARD RWY 09/27 PP000
TAF:SPMS 271700Z 2718/2818 10003KT 9999 SCT020 BKN100 TX30/2719Z TN23/2811Z
TEMPO 2722/2801 35003KT 8000 -SHRA BKN015 BKN100
BECMG 2807/2809 VRB02KT SCT015 BKN100
TEMPO 2810/2813 3000 BR OVC010

Related Locations
Nearby:
Farthest:RDN: 12388 mi / 19937 km
Redang [Redang Airport], Redang Island (Pulau Redang), 11, MY

Find:

   beyond  
but within

Other Information
Maps:
NOTAMs:
Links:
Sources:

  
flag of Perú
flag of Loreto
  

Sectional Chart

Flight Planning
at skyvector.com

Satellite Image

Google Maps Satellite view

 

Copyright © 2004-2017 Karl L. Swartz. All rights reserved.
The Great Circle Mapper name and logo are trademarks of the Great Circle Mapper.
All other trademarks mentioned herein belong to their respective owners.
Please see credits for attibutions and further copyright information.

  Follow gcmap on Facebook Follow gcmap on Twitter Follow gcmap on Google+ GCmap on LinkedIn

hCard Microformat

Geo Microformat